カタログに戻る

STARLINK-35601

運用中通信VLEO
NORAD 66149·PAYLOAD·🇺🇸 United States

打ち上げ Oct 25, 2025 から Cape Canaveral Space Force Station

Loading…

次のパス (今後24時間)

TLE

最新Source: CelesTrak SupGP

元期: Sep 15, 2026, 02:36 UTC

1 66149C 25240D   26258.10881944 -.00021647  00000+0 -63940-3 0  2581
2 66149  53.1567 260.7047 0001338  93.1280 190.9715 15.34409737    15

AllMySatでSTARLINK-35601をリアルタイム追跡

Download on the App Store